CW1550 Weather Reports


Display with metric or nautical units.
time (UTC)temp
F
wind
direction
speed
MPH
gust
MPH
rain 1hr
in
rain 24hr
in
rain mn
in
humidity
%
barometer
mb
20260507075505 54 338 4.0 12.0 0.00 0.29 0.17 85 1008.9
20260507075005 54 19 8.0 16.0 0.00 0.29 0.17 85 1008.7
20260507074505 54 8 3.0 9.0 0.00 0.29 0.17 85 1008.8
20260507073505 55 16 3.0 9.0 0.01 0.29 0.17 85 1008.7
20260507073012 55 299 5.0 13.0 0.01 0.29 0.17 85 1008.6
20260507072505 55 333 6.0 13.0 0.01 0.29 0.17 85 1008.6
20260507072006 55 327 5.0 12.0 0.01 0.29 0.17 85 1008.5
20260507071005 55 1 10.0 17.0 0.01 0.29 0.17 86 1008.7
20260507070013 56 34 9.0 18.0 0.01 0.29 0.17 88 1008.8
20260507065505 57 329 2.0 14.0 0.01 0.29 0.17 89 1008.9
20260507065005 57 340 0.0 0.0 0.01 0.29 0.17 89 1009.0
20260507064505 57 340 0.0 0.0 0.01 0.29 0.17 89 1008.8
20260507064006 57 335 2.0 3.0 0.01 0.29 0.17 89 1008.7
20260507063505 57 350 2.0 6.0 0.00 0.28 0.16 89 1008.4
20260507063011 57 12 2.0 6.0 0.00 0.28 0.16 89 1008.5
20260507062506 57 343 2.0 5.0 0.01 0.28 0.16 89 1008.6
20260507062005 57 345 2.0 3.0 0.01 0.28 0.16 88 1008.6
20260507061505 57 350 0.0 0.0 0.02 0.28 0.16 88 1008.6
20260507061006 57 350 1.0 2.0 0.04 0.28 0.16 88 1008.9
20260507060505 57 350 2.0 3.0 0.06 0.28 0.16 88 1008.6
20260507055505 57 345 1.0 2.0 0.11 0.28 0.16 87 1008.8
20260507055005 57 345 1.0 3.0 0.14 0.28 0.16 87 1009.0
20260507054505 58 340 2.0 6.0 0.16 0.28 0.16 86 1008.6
20260507054006 58 335 2.0 5.0 0.16 0.28 0.16 86 1008.9
20260507053505 58 345 0.0 2.0 0.16 0.28 0.16 85 1009.1
20260507053011 58 345 0.0 0.0 0.16 0.28 0.16 85 1009.2
20260507052505 58 345 2.0 5.0 0.15 0.27 0.15 84 1009.0
20260507052005 59 340 2.0 5.0 0.15 0.27 0.15 84 1008.8
20260507051006 59 344 3.0 8.0 0.12 0.24 0.12 83 1009.0
20260507045505 61 341 3.0 14.0 0.05 0.17 0.05 79 1009.3
20260507045006 61 342 4.0 10.0 0.02 0.14 0.02 76 1009.0
20260507044505 61 318 4.0 9.0 0.00 0.12 0.00 75 1008.6
20260507044005 62 312 3.0 6.0 0.00 0.12 0.00 74 1008.8
20260507043505 62 356 5.0 13.0 0.00 0.12 0.00 74 1008.6
20260507042505 62 332 3.0 10.0 0.00 0.12 0.00 73 1008.7
20260507041504 63 344 8.0 20.0 0.00 0.12 0.00 74 1008.6
20260507041005 63 349 6.0 15.0 0.00 0.12 0.00 75 1008.4
20260507040505 64 324 6.0 14.0 0.00 0.12 0.00 76 1008.3
20260507040011 64 337 2.0 6.0 0.00 0.12 0.00 77 1007.9
20260507035005 64 310 2.0 6.0 0.00 0.12 0.12 77 1008.0
20260507034505 64 354 1.0 3.0 0.00 0.12 0.12 76 1007.8
20260507034006 64 350 2.0 10.0 0.00 0.12 0.12 76 1008.0
20260507033504 64 269 2.0 5.0 0.00 0.12 0.12 76 1008.3
20260507033011 64 345 3.0 5.0 0.00 0.12 0.12 76 1008.4
20260507032505 64 330 3.0 9.0 0.00 0.12 0.12 75 1008.2
20260507032005 65 298 1.0 5.0 0.00 0.12 0.12 75 1008.1
20260507031505 65 349 2.0 8.0 0.00 0.12 0.12 75 1008.2
20260507030505 65 327 2.0 6.0 0.00 0.12 0.12 74 1008.1
20260507030011 65 305 1.0 6.0 0.00 0.12 0.12 74 1007.9
20260507025505 65 329 2.0 9.0 0.00 0.12 0.12 73 1007.8
20260507025006 65 310 5.0 10.0 0.00 0.12 0.12 73 1007.8
20260507024505 66 353 3.0 5.0 0.00 0.12 0.12 73 1007.8
20260507024006 66 325 2.0 8.0 0.00 0.12 0.12 73 1007.8
20260507023505 66 320 1.0 6.0 0.00 0.12 0.12 73 1007.5
20260507023012 66 110 3.0 10.0 0.00 0.12 0.12 73 1007.2
20260507022005 67 4 2.0 14.0 0.00 0.12 0.12 75 1007.4
20260507021505 67 332 3.0 6.0 0.00 0.12 0.12 76 1007.5
20260507021005 67 2 3.0 7.0 0.00 0.12 0.12 77 1007.6
20260507020504 67 353 5.0 14.0 0.00 0.12 0.12 78 1007.5
20260507015505 68 354 5.0 9.0 0.00 0.12 0.12 80 1007.1
20260507015005 67 316 1.0 3.0 0.00 0.12 0.12 80 1007.1
20260507014505 67 292 0.0 3.0 0.00 0.12 0.12 81 1007.3
20260507013505 68 304 2.0 5.0 0.00 0.12 0.12 82 1007.4
20260507013011 68 297 2.0 6.0 0.00 0.12 0.12 81 1007.5
20260507012505 68 184 1.0 3.0 0.00 0.12 0.12 81 1007.4
20260507012005 68 217 0.0 1.0 0.00 0.12 0.12 81 1007.5
20260507011505 68 217 0.0 1.0 0.00 0.12 0.12 81 1007.3
20260507011006 68 217 0.0 1.0 0.00 0.12 0.12 80 1007.2
20260507010504 68 217 0.0 0.0 0.00 0.12 0.12 80 1007.3
20260507010011 68 217 0.0 1.0 0.00 0.12 0.12 80 1007.2
20260507005505 68 217 0.0 1.0 0.00 0.12 0.12 80 1007.0
20260507005005 68 217 0.0 2.0 0.00 0.12 0.12 80 1007.1
20260507004505 68 217 2.0 2.0 0.00 0.12 0.12 80 1007.1
20260507004005 69 217 0.0 0.0 0.00 0.12 0.12 80 1007.0
20260507003505 69 217 0.0 0.0 0.00 0.12 0.12 79 1006.9
20260507003011 69 217 1.0 3.0 0.00 0.12 0.12 79 1007.1
20260507002005 69 263 0.0 0.0 0.00 0.12 0.12 79 1006.9
20260507001504 69 263 0.0 0.0 0.00 0.12 0.12 78 1006.7
20260507001005 69 263 0.0 2.0 0.00 0.12 0.12 78 1006.8
20260507000505 69 263 0.0 1.0 0.00 0.12 0.12 78 1006.9
20260507000011 70 235 2.0 5.0 0.00 0.12 0.12 77 1006.7
20260506235505 70 160 1.0 3.0 0.00 0.12 0.12 77 1006.6
20260506235005 70 191 0.0 0.0 0.00 0.12 0.12 77 1006.7
20260506234505 70 191 0.0 1.0 0.00 0.12 0.12 77 1006.4
20260506234005 70 195 0.0 1.0 0.00 0.12 0.12 77 1006.4
20260506233505 70 196 1.0 3.0 0.00 0.12 0.12 77 1006.4
20260506233011 70 205 2.0 6.0 0.00 0.12 0.12 76 1006.4
20260506232504 71 179 0.0 6.0 0.00 0.12 0.12 75 1006.3
20260506232005 71 162 0.0 3.0 0.00 0.12 0.12 75 1006.2
20260506231506 71 170 1.0 6.0 0.00 0.12 0.12 75 1006.3
20260506231005 71 209 0.0 5.0 0.00 0.12 0.12 75 1006.3
20260506230504 71 206 2.0 5.0 0.00 0.12 0.12 75 1006.2
20260506230011 71 115 2.0 7.0 0.00 0.12 0.12 74 1006.3
20260506224505 71 192 2.0 5.0 0.00 0.12 0.12 74 1006.0
20260506224006 71 172 2.0 6.0 0.00 0.12 0.12 74 1005.9
20260506223505 71 223 1.0 6.0 0.00 0.12 0.12 74 1006.0
20260506223012 71 221 0.0 5.0 0.00 0.12 0.12 74 1006.3
20260506222505 71 196 2.0 7.0 0.00 0.12 0.12 73 1006.3
20260506222005 72 282 3.0 7.0 0.00 0.12 0.12 73 1006.2
20260506221006 72 225 2.0 7.0 0.00 0.12 0.12 72 1006.3
20260506220505 72 194 1.0 5.0 0.00 0.12 0.12 72 1006.3
20260506220011 72 144 3.0 7.0 0.00 0.12 0.12 72 1006.2
20260506215504 73 179 3.0 9.0 0.00 0.12 0.12 71 1006.2
20260506215006 73 218 3.0 7.0 0.00 0.12 0.12 71 1006.2
20260506214505 73 136 2.0 10.0 0.00 0.12 0.12 71 1006.2
20260506214005 73 178 4.0 7.0 0.00 0.12 0.12 72 1006.1
20260506213505 72 261 3.0 7.0 0.00 0.12 0.12 72 1005.9
20260506213011 72 247 4.0 8.0 0.00 0.12 0.12 72 1006.0
20260506212504 72 212 5.0 8.0 0.00 0.12 0.12 72 1005.9
20260506212005 72 138 5.0 10.0 0.00 0.12 0.12 71 1005.9
20260506211504 72 187 3.0 10.0 0.00 0.12 0.12 72 1005.9
20260506211006 72 196 1.0 9.0 0.00 0.12 0.12 72 1005.9
20260506210011 72 264 3.0 8.0 0.00 0.12 0.12 72 1005.7
20260506205005 72 220 3.0 10.0 0.00 0.12 0.12 72 1005.7
20260506204505 72 251 4.0 8.0 0.00 0.12 0.12 71 1005.5
20260506204005 72 265 2.0 10.0 0.00 0.12 0.12 71 1005.7
20260506203505 73 163 6.0 10.0 0.00 0.12 0.12 71 1005.7
20260506203012 72 42 2.0 6.0 0.00 0.12 0.12 72 1005.7
20260506202005 72 238 4.0 12.0 0.00 0.12 0.12 72 1005.6
20260506201505 72 143 3.0 8.0 0.00 0.12 0.12 72 1005.6
20260506201006 72 146 6.0 12.0 0.00 0.12 0.12 71 1005.7
20260506200504 72 151 5.0 9.0 0.00 0.12 0.12 71 1005.7
20260506200011 72 148 6.0 9.0 0.00 0.12 0.12 71 1005.7
20260506195505 72 146 3.0 12.0 0.00 0.12 0.12 72 1005.7
20260506194505 72 176 4.0 13.0 0.00 0.12 0.12 71 1005.7
20260506194005 72 108 4.0 10.0 0.00 0.12 0.12 73 1005.8
20260506193505 72 153 7.0 12.0 0.00 0.12 0.12 72 1005.9
20260506193012 72 142 1.0 10.0 0.00 0.12 0.12 73 1005.8
20260506192505 71 167 6.0 12.0 0.00 0.12 0.12 73 1005.9
20260506191505 70 318 2.0 7.0 0.00 0.12 0.12 75 1006.0
20260506191004 70 163 6.0 16.0 0.00 0.12 0.12 75 1006.1
20260506190505 70 162 5.0 10.0 0.00 0.12 0.12 75 1006.2
20260506190011 70 246 6.0 17.0 0.00 0.12 0.12 76 1006.2
20260506185505 69 175 4.0 10.0 0.00 0.12 0.12 76 1006.3
20260506184505 69 160 2.0 6.0 0.00 0.12 0.12 78 1006.5
20260506184005 68 251 7.0 14.0 0.00 0.12 0.12 77 1006.5
20260506183505 68 205 3.0 13.0 0.00 0.12 0.12 77 1006.5
20260506183011 68 189 4.0 12.0 0.00 0.12 0.12 78 1006.5
20260506182505 68 156 8.0 13.0 0.00 0.12 0.12 78 1006.6
20260506182006 68 228 3.0 10.0 0.00 0.12 0.12 78 1006.7
20260506181505 67 215 5.0 12.0 0.00 0.12 0.12 79 1006.7
20260506181005 67 174 4.0 12.0 0.00 0.12 0.12 79 1006.7
20260506180011 67 167 6.0 12.0 0.00 0.12 0.12 80 1006.8
20260506174505 67 212 7.0 12.0 0.00 0.12 0.12 81 1006.9
20260506174005 67 196 10.0 23.0 0.00 0.12 0.12 81 1006.7
20260506173505 66 120 4.0 20.0 0.00 0.12 0.12 82 1006.7
20260506173011 66 95 1.0 7.0 0.00 0.12 0.12 84 1006.8
20260506172504 66 331 3.0 9.0 0.00 0.12 0.12 84 1006.9
20260506172005 65 146 2.0 5.0 0.00 0.12 0.12 84 1006.9
20260506171505 65 201 7.0 12.0 0.00 0.12 0.12 84 1006.9
20260506171005 65 139 5.0 13.0 0.00 0.12 0.12 85 1006.9
20260506170504 65 154 2.0 12.0 0.00 0.12 0.12 85 1007.0
20260506170011 65 174 6.0 14.0 0.00 0.12 0.12 86 1007.0
20260506165505 64 210 5.0 12.0 0.00 0.12 0.12 86 1007.0
20260506165005 64 139 3.0 13.0 0.00 0.12 0.12 87 1007.1
20260506164505 64 223 5.0 17.0 0.00 0.12 0.12 87 1007.2
20260506164005 64 114 8.0 16.0 0.00 0.12 0.12 87 1007.1
20260506163505 63 159 9.0 22.0 0.00 0.12 0.12 87 1007.1
20260506163011 63 197 5.0 9.0 0.00 0.12 0.12 88 1007.1
20260506162505 63 159 5.0 13.0 0.00 0.12 0.12 88 1007.1
20260506162005 63 150 5.0 13.0 0.00 0.12 0.12 88 1007.1
20260506161505 63 153 5.0 13.0 0.00 0.12 0.12 88 1007.3
20260506161005 63 168 6.0 13.0 0.01 0.12 0.12 88 1007.2
20260506160505 63 160 6.0 13.0 0.01 0.12 0.12 89 1007.5
20260506160011 63 180 7.0 14.0 0.01 0.12 0.12 89 1007.3
20260506155005 63 160 4.0 10.0 0.02 0.12 0.12 89 1007.3
20260506154505 63 144 7.0 13.0 0.03 0.12 0.12 89 1007.6
20260506154006 63 169 3.0 13.0 0.03 0.12 0.12 89 1007.4
20260506153505 63 138 7.0 12.0 0.04 0.12 0.12 89 1007.3
20260506152504 63 114 4.0 10.0 0.04 0.12 0.12 89 1007.4
20260506152006 63 206 2.0 6.0 0.05 0.12 0.12 89 1007.7
20260506151005 62 219 3.0 9.0 0.05 0.11 0.11 89 1007.9
20260506150505 62 171 4.0 10.0 0.05 0.11 0.11 88 1007.9
20260506150011 62 134 3.0 16.0 0.06 0.11 0.11 88 1008.1
20260506145005 62 129 4.0 8.0 0.06 0.10 0.10 88 1008.1
20260506144505 62 180 6.0 13.0 0.05 0.09 0.09 88 1008.1
20260506144005 62 148 4.0 10.0 0.06 0.09 0.09 87 1008.1
20260506143505 63 139 4.0 10.0 0.05 0.08 0.08 87 1007.8
20260506143012 63 135 5.0 8.0 0.05 0.08 0.08 87 1008.0
20260506142505 63 173 3.0 8.0 0.06 0.08 0.08 87 1008.1
20260506141504 63 175 3.0 9.0 0.06 0.07 0.07 86 1007.9
20260506141005 63 145 2.0 9.0 0.05 0.06 0.06 86 1007.9
20260506140505 63 166 4.0 9.0 0.05 0.06 0.06 85 1008.0
20260506140011 63 210 3.0 9.0 0.04 0.05 0.05 85 1008.0
20260506135505 63 154 5.0 15.0 0.05 0.05 0.05 85 1008.2
20260506135005 63 143 3.0 7.0 0.04 0.04 0.04 84 1008.2
20260506134505 64 177 2.0 10.0 0.04 0.04 0.04 84 1008.5
20260506134005 64 184 5.0 8.0 0.03 0.03 0.03 83 1008.7
20260506133505 64 238 4.0 12.0 0.03 0.03 0.03 83 1008.6
20260506133012 64 210 2.0 10.0 0.03 0.03 0.03 82 1008.4
20260506132504 64 134 3.0 8.0 0.02 0.02 0.02 82 1008.4
20260506132005 64 127 2.0 8.0 0.02 0.02 0.02 81 1008.2
20260506131505 65 181 3.0 12.0 0.01 0.01 0.01 80 1008.1
20260506131005 65 165 2.0 6.0 0.01 0.01 0.01 80 1008.0
20260506130505 65 169 4.0 9.0 0.01 0.01 0.01 79 1008.0
20260506130010 65 184 1.0 3.0 0.01 0.01 0.01 79 1007.9
20260506125504 65 185 1.0 10.0 0.00 0.00 0.00 78 1007.7
20260506125005 65 182 5.0 10.0 0.00 0.00 0.00 78 1007.7
20260506124505 65 163 2.0 10.0 0.00 0.00 0.00 77 1007.7
20260506124005 65 126 3.0 8.0 0.00 0.00 0.00 77 1007.9
20260506123506 65 172 3.0 5.0 0.00 0.00 0.00 77 1007.9
20260506123010 65 139 3.0 7.0 0.00 0.00 0.00 76 1007.9
20260506122505 65 259 2.0 6.0 0.00 0.00 0.00 76 1008.2
20260506122005 65 243 4.0 10.0 0.00 0.00 0.00 75 1008.3
20260506121505 66 137 2.0 9.0 0.00 0.00 0.00 75 1008.4
20260506121005 66 214 5.0 17.0 0.00 0.00 0.00 74 1008.3
20260506120011 66 207 3.0 9.0 0.00 0.00 0.00 72 1008.2
20260506115505 67 171 6.0 13.0 0.00 0.00 0.00 72 1008.1
20260506115005 67 209 7.0 17.0 0.00 0.00 0.00 71 1008.0
20260506114005 67 231 4.0 8.0 0.00 0.00 0.00 71 1007.8
20260506113505 67 161 4.0 10.0 0.00 0.00 0.00 70 1007.8
20260506113011 67 188 8.0 18.0 0.00 0.00 0.00 70 1007.7
20260506112504 67 141 2.0 9.0 0.00 0.00 0.00 71 1007.6
20260506112005 67 159 3.0 8.0 0.00 0.00 0.00 71 1007.6
20260506111504 67 173 5.0 12.0 0.00 0.00 0.00 71 1007.7
20260506111005 66 144 5.0 10.0 0.00 0.00 0.00 71 1007.6
20260506110505 66 181 5.0 9.0 0.00 0.00 0.00 71 1007.5
20260506110011 66 138 3.0 6.0 0.00 0.00 0.00 71 1007.4
20260506105504 66 185 3.0 7.0 0.00 0.00 0.00 71 1007.4
20260506105005 66 168 6.0 10.0 0.00 0.00 0.00 71 1007.4
20260506104005 66 147 5.0 14.0 0.00 0.00 0.00 70 1007.3
20260506103505 66 180 4.0 10.0 0.00 0.00 0.00 70 1007.3
20260506102504 66 150 5.0 10.0 0.00 0.00 0.00 70 1007.2
20260506102005 66 156 2.0 17.0 0.00 0.00 0.00 70 1007.4
20260506101504 66 203 5.0 9.0 0.00 0.00 0.00 70 1007.3
20260506101005 66 315 2.0 7.0 0.00 0.00 0.00 70 1007.2
20260506100504 66 156 4.0 10.0 0.00 0.00 0.00 70 1007.2
20260506100010 66 150 3.0 10.0 0.00 0.00 0.00 70 1007.2
20260506095006 67 182 5.0 10.0 0.00 0.00 0.00 70 1007.3
20260506094505 67 175 4.0 10.0 0.00 0.00 0.00 70 1007.4
20260506093504 67 142 5.0 10.0 0.00 0.00 0.00 69 1007.4
20260506093009 67 189 6.0 10.0 0.00 0.00 0.00 69 1007.3
20260506092004 67 143 5.0 13.0 0.00 0.00 0.00 69 1007.3
20260506091504 67 166 5.0 12.0 0.00 0.00 0.00 69 1007.4
20260506091005 67 185 4.0 9.0 0.00 0.00 0.00 68 1007.5
20260506090505 67 186 5.0 13.0 0.00 0.00 0.00 68 1007.5
20260506090011 68 180 3.0 9.0 0.00 0.00 0.00 67 1007.6
20260506085505 68 208 3.0 6.0 0.00 0.00 0.00 67 1007.7
20260506085005 68 201 6.0 15.0 0.00 0.00 0.00 67 1007.7
20260506084504 68 171 5.0 12.0 0.00 0.00 0.00 67 1007.6
20260506083504 68 186 4.0 17.0 0.00 0.00 0.00 66 1007.6
20260506082504 69 134 3.0 12.0 0.00 0.00 0.00 65 1007.6
20260506082005 69 190 9.0 16.0 0.00 0.00 0.00 65 1007.6
20260506080505 69 127 5.0 9.0 0.00 0.00 0.00 63 1007.4